FLOCK 3P-64 (42034 NORAD) Tracking and Keplerian Element Data

This shows tracking and keplerian element data for the satellite.

Feedback or suggestion? Click here.




ElementValue
Catalog42034
NameFLOCK 3P-64
Epoch Orbit31270
Epoch Day270.12610858
Epoch Year2022
RAAN335.5205
Inclination97.266
Eccentricity0.0006364
Argument of Perigee232.6306
Mean Anonmoly127.4362
Mean Motion15.40943566
Decay Rate0.00082578
L11 42034U 17008CQ 22270.12610858 .00082578 00000+0 19885-2 0 9995
L22 42034 97.2660 335.5205 0006364 232.6306 127.4362 15.40943566312700

Live tracking and technical data element details for FLOCK 3P-64 (NORAD 42034). FLOCK 3P-64 can be tracked NOW for your location showing map with azimuth and elevation plus other details from your city location.

Track the satellite on the map from your city or location and see movement details for azimuth, elevation, latitude, longitude, range, height, and movement on the map or in text.







IsCatalogInMostPopularTable: catalog: 42034, numindb: 600
Update: records affected: 1



GetName: 42034 FLOCK 3P-64

Hit Count: updated at: Wed, 28 Sep 2022 21:56:08 GMT